Location: Hlohovi?ky
(49.8934°N, 13.6739°E)
Time: 17:44:20
(UTC+00:00)

BREEZE-M DEB (TANK) - Pass Details

Date: 19 May 2025
Orbit: 281 x 12174 km, 49.5° (Epoch: 16 June)

Event Time Altitude Azimuth Distance (km) Brightness Sun altitude
Rises 20:32:48 0° 268° (W) 11,181 9.4 -12.8°
Reaches altitude 10° 20:44:00 10° 270° (W) 7,931 8.6 -13.8°
Maximum altitude 21:02:54 88° 184° (S) 1,350 4.2 -15.3°
Drops below altitude 10° 21:07:39 10° 96° (E) 2,222 5.1 -15.7°
Enters shadow 21:07:53 - 96° (E) 2,310 5.2 -15.7°
